Flag for Belize Weather past 2 weeks in Belize City, Belize

Now
79 °F

Passing clouds.


Feels Like: 82 °F
Forecast: 78 / 81 °F
Wind: 10 mph from East

Location: Belize / Phillip Goldston Intl. Airport

Current Time: Mar 1, 2015 at 6:47:18 AM

Latest Report: Mar 1, 2015 at 6:00 AM


Visibility: N/A

Pressure: 30.07 "Hg

Humidity: 84%

Dew point: 73 °F

Location of Belize CityLocation

Historic Weather in Belize City — Graph

°F

Belize City temperature yesterday

Maximum temperature yesterday: 86 °F (at 10:00 AM)
Minimum temperature yesterday: 73 °F (at 6:00 AM)
Average temperature yesterday: 82 °F

Past Weeks' High & Low Weather Summary

 TemperatureHumidityPressure
High90 °F (Feb 26, 1:00 PM)100% (Feb 25, 8:00 AM)30.22 "Hg (Feb 25, 8:00 AM)
Low64 °F (Feb 14, 5:00 AM)49% (Feb 18, 3:00 PM)29.78 "Hg (Feb 26, 5:00 AM)
Average78 °F77%30.01 "Hg
* Reported Feb 14 5:00 AM — Mar 1 5:00 AM, Belize City, Weather by CustomWeather, © 2015

Note: Actual official high and low records may vary slightly from our data, if they occured in-between our weather recording intervals... More about our weather records

Advertising

Belize City weather history for previous 24 hours

 ConditionsComfort  
Time TempWeatherWind HumidityBarometerVisibility
5:00 AM
Sun, Mar 1
79 °FPassing clouds.9 mph89%30.05 "HgN/A
8:00 PM
Sat, Feb 28
79 °FPassing clouds.5 mph84%30.07 "HgN/A
7:00 PM81 °FPassing clouds.5 mph79%30.05 "HgN/A
6:00 PM81 °FPassing clouds.8 mph79%30.04 "HgN/A
5:00 PM84 °FScattered clouds.10 mph70%30.03 "HgN/A
4:00 PM84 °FScattered clouds.10 mph70%30.02 "HgN/A
3:00 PM84 °FScattered clouds.12 mph70%30.02 "HgN/A
2:00 PM86 °FScattered clouds.12 mph66%30.03 "HgN/A
1:00 PM84 °FScattered clouds.12 mph66%30.05 "HgN/A
12:00 PM86 °FScattered clouds.10 mph66%30.07 "HgN/A
11:00 AM84 °FScattered clouds.8 mph70%30.09 "HgN/A
10:00 AM86 °FScattered clouds.8 mph66%30.10 "HgN/A
9:00 AM84 °FScattered clouds.7 mph70%30.10 "HgN/A
8:00 AM79 °FPassing clouds.No wind84%30.07 "HgN/A
7:00 AM73 °FPassing clouds.No wind94%30.05 "HgN/A
6:00 AM73 °FPassing clouds.No wind94%30.03 "HgN/A
Weather by CustomWeather, © 2015

See weather overviewHow to use our weather pages